Starlink 1279

operational
NORAD ID: 45360 Int'l Des: 2020-019 Owner: SPXS Country: US Constellation: starlink
LEOCIRCULARSTARLINK_TYPE

Starlink 1279について

説明を読み込み中...

リアルタイム位置

3D地球を読み込み中...

次回通過

高度履歴

Altitude vs Time

uPlot chart will show altitude changes over time

軌道要素

1 45360U 20019A 25306.47142323 .00068238 00000-0 20241-2 0 9990
2 45360 53.0522 344.7658 0002362 23.3222 336.7886 15.34214734311001
Epoch: Nov 2, 2025 • Age: 16 hours

現在のステータス

高度 467.5 km
速度 7.63 km/s
衛星直下点 -10.77°S, 70.26°E
打ち上げ日 Mar 18, 2020
運用期間 5.6 years
タイプ internet

技術仕様

分類 Payload
質量 260.00 kg
乾燥質量 248.00 kg
総質量 260.00 kg
長さ 0.20 m
直径 2.80 m
スパン 9.00 m
形状 Box + pan
製造者 SPXS
バスタイプ Starlink
フェーズステータス In Orbit
所有者/国 SPXS/US

大規模コンステレーション

Loading constellations...